Tacoma, WA
on Wednesday, December 26, 2012

Wednesday
Previous Day Next Day
Daily Summary
 ActualAverage (KSEA)Record (KSEA)
Temperature
Mean Temperature °F 40°F  
Max Temperature 46°F 45°F 62°F (1980)
Min Temperature 37°F 36°F 22°F (1948)
Degree Days
Heating Degree Days 24 25  
Month to date heating degree days 635  
Since 1 July heating degree days 1818  
Cooling Degree Days 0 0  
Month to date cooling degree days 0  
Year to date cooling degree days 189  
Moisture
Dew Point 40°F   
Average Humidity 95    
Maximum Humidity 100    
Minimum Humidity 81    
Precipitation
Precipitation 0.25 in 0.17 in 2.14 in (1974)
Month to date precipitation 4.54  
Year to date precipitation 36.68  
Snow
Snow 0.00 in in 8.80 in (1974)
Month to date snowfall  
Since 1 July snowfall  
Snow Depth in   
Wind
Wind Speed 4 mph   
Max Wind Speed 16 mph   
Max Gust Speed 21 mph   
Visibility 8 miles   
Events Rain   

Key: T is trace of precipitation, MM is missing value
Source: NWS Daily Summary
Time(PST)TemperatureDew PointHumidity Pressure Visibility Wind DirectionWind SpeedGust SpeedPrecipitationEvents Conditions
12:18 AM 37.4°F 37.4°F 100% 29.70 in 5.0 miles WSW 2.3 mph - N/A   Overcast
12:58 AM 38.1°F 37.9°F 99% 29.71 in 7.0 miles Calm Calm - N/A   Overcast
1:13 AM 39.2°F 37.4°F 93% 29.70 in 6.0 miles South 1.2 mph - N/A Rain Light Rain
1:18 AM 39.2°F 37.4°F 93% 29.70 in 7.0 miles SE 1.2 mph - N/A Rain Light Rain
1:23 AM 39.2°F 37.4°F 93% 29.69 in 6.0 miles Calm Calm - N/A   Overcast
1:33 AM 39.2°F 39.2°F 100% 29.70 in 6.0 miles Calm Calm - N/A   Overcast
1:44 AM 39.2°F 39.2°F 100% 29.70 in 5.0 miles ESE 2.3 mph - N/A Rain Light Rain
1:57 AM 39.2°F 39.2°F 100% 29.70 in 6.0 miles Calm Calm - N/A   Overcast
1:58 AM 39.2°F 39.2°F 100% 29.72 in 6.0 miles Calm Calm - 0.00 in   Overcast
2:00 AM 39.2°F 39.2°F 100% 29.70 in 6.0 miles Calm Calm - N/A Rain Light Rain
2:10 AM 39.2°F 39.2°F 100% 29.71 in 5.0 miles Calm Calm - N/A Rain Light Rain
2:25 AM 39.2°F 39.2°F 100% 29.71 in 5.0 miles SSW 4.6 mph - N/A Rain Light Rain
2:46 AM 39.2°F 39.2°F 100% 29.71 in 4.0 miles SSW 2.3 mph - N/A   Overcast
2:56 AM 39.2°F 39.2°F 100% 29.71 in 3.0 miles Calm Calm - N/A   Overcast
2:58 AM 39.2°F 39.2°F 100% 29.74 in 3.0 miles Calm Calm - 0.04 in Rain Light Rain
3:03 AM 39.2°F 39.2°F 100% 29.71 in 3.0 miles SSE 1.2 mph - N/A Rain Rain
3:23 AM 39.2°F 39.2°F 100% 29.71 in 3.0 miles Calm Calm - N/A Rain Rain
3:33 AM 39.2°F 39.2°F 100% 29.71 in 5.0 miles East 2.3 mph - N/A Rain Rain
3:43 AM 39.2°F 39.2°F 100% 29.71 in 4.0 miles SE 3.5 mph - N/A Rain Light Rain
3:53 AM 39.2°F 39.2°F 100% 29.71 in 6.0 miles ESE 3.5 mph - N/A   Overcast
3:58 AM 39.4°F 39.2°F 99% 29.73 in 6.0 miles ESE 3.5 mph - 0.12 in   Overcast
4:28 AM 39.2°F 39.2°F 100% 29.71 in 7.0 miles ESE 3.5 mph - N/A Rain Light Rain
4:43 AM 39.2°F 39.2°F 100% 29.71 in 10.0 miles Variable 3.5 mph - N/A Rain Light Rain
4:54 AM 39.2°F 39.2°F 100% 29.71 in 10.0 miles Variable 3.5 mph - N/A   Overcast
4:58 AM 39.0°F 38.7°F 99% 29.73 in 10.0 miles ESE 3.5 mph - 0.03 in   Overcast
5:58 AM 39.0°F 38.8°F 99% 29.74 in 10.0 miles ENE 1.2 mph - N/A   Overcast
6:17 AM 39.2°F 39.2°F 100% 29.73 in 8.0 miles SE 3.5 mph - N/A Rain Light Rain
6:27 AM 39.2°F 39.2°F 100% 29.73 in 7.0 miles SE 2.3 mph - N/A Rain Light Rain
6:32 AM 39.2°F 39.2°F 100% 29.73 in 9.0 miles Variable 2.3 mph - N/A Rain Light Rain
6:36 AM 39.2°F 39.2°F 100% 29.73 in 10.0 miles Calm Calm - N/A   Overcast
6:57 AM 39.2°F 39.2°F 100% 29.73 in 10.0 miles SW 3.5 mph - N/A Rain Light Rain
6:58 AM 39.2°F 39.2°F 100% 29.75 in 10.0 miles SW 3.5 mph - 0.00 in Rain Light Rain
7:06 AM 39.2°F 39.2°F 100% 29.73 in 10.0 miles SE 1.2 mph - N/A   Overcast
7:58 AM 38.1°F 37.9°F 99% 29.77 in 10.0 miles South 2.3 mph - 0.00 in   Overcast
8:18 AM 39.2°F 37.4°F 93% 29.75 in 10.0 miles South 2.3 mph - N/A   Overcast
8:58 AM 39.7°F 39.6°F 99% 29.78 in 10.0 miles SSE 5.8 mph - N/A   Overcast
9:58 AM 42.1°F 41.4°F 97% 29.80 in 10.0 miles South 4.6 mph - N/A   Overcast
10:58 AM 42.8°F 41.0°F 93% 29.81 in 10.0 miles South 4.6 mph - N/A   Overcast
11:03 AM 42.8°F 41.0°F 93% 29.79 in 10.0 miles SSW 5.8 mph - N/A   Overcast
11:08 AM 42.8°F 41.0°F 93% 29.79 in 10.0 miles SSW 5.8 mph - N/A   Overcast
11:58 AM 44.6°F 42.8°F 93% 29.80 in 10.0 miles South 6.9 mph - N/A   Mostly Cloudy
12:08 PM 46.4°F 42.8°F 87% 29.78 in 10.0 miles SSW 10.4 mph - N/A   Overcast
12:23 PM 46.4°F 42.8°F 87% 29.78 in 10.0 miles SSW 10.4 mph - N/A   Overcast
12:53 PM 44.6°F 41.0°F 87% 29.78 in 10.0 miles South 11.5 mph - N/A Rain Light Rain
12:58 PM 45.0°F 41.5°F 88% 29.80 in 10.0 miles South 11.5 mph - 0.00 in Rain Light Rain
1:03 PM 44.6°F 41.0°F 87% 29.79 in 10.0 miles South 11.5 mph - N/A Rain Light Rain
1:05 PM 44.6°F 41.0°F 87% 29.79 in 10.0 miles South 12.7 mph - N/A   Overcast
1:15 PM 44.6°F 41.0°F 87% 29.79 in 10.0 miles South 10.4 mph - N/A   Overcast
1:55 PM 44.6°F 41.0°F 87% 29.79 in 10.0 miles South 13.8 mph - N/A Rain Light Rain
1:58 PM 44.4°F 40.3°F 85% 29.81 in 10.0 miles SSW 12.7 mph - 0.00 in Rain Light Rain
2:17 PM 44.6°F 39.2°F 81% 29.79 in 10.0 miles South 15.0 mph - N/A   Overcast
2:21 PM 44.6°F 39.2°F 81% 29.80 in 10.0 miles South 12.7 mph - N/A Rain Light Rain
2:58 PM 43.3°F 40.5°F 90% 29.82 in 10.0 miles South 12.7 mph - 0.01 in Rain Light Rain
3:10 PM 42.8°F 39.2°F 87% 29.80 in 10.0 miles South 10.4 mph - N/A   Partly Cloudy
3:35 PM 42.8°F 41.0°F 93% 29.81 in 10.0 miles South 8.1 mph - N/A   Mostly Cloudy
3:47 PM 42.8°F 41.0°F 93% 29.81 in 10.0 miles South 9.2 mph - N/A Rain Light Rain
3:58 PM 43.3°F 40.1°F 88% 29.83 in 10.0 miles South 10.4 mph - 0.00 in Rain Light Rain
4:28 PM 42.8°F 41.0°F 93% 29.82 in 10.0 miles South 8.1 mph - N/A Rain Light Rain
4:58 PM 41.7°F 40.6°F 96% 29.85 in 10.0 miles South 10.4 mph - 0.02 in Rain Light Rain
5:03 PM 41.0°F 41.0°F 100% 29.83 in 10.0 miles South 10.4 mph - N/A Rain Light Rain
5:08 PM 41.0°F 41.0°F 100% 29.83 in 10.0 miles South 11.5 mph - N/A Rain Light Rain
5:38 PM 41.0°F 41.0°F 100% 29.83 in 10.0 miles South 11.5 mph - N/A Rain Light Rain
5:58 PM 41.5°F 40.8°F 97% 29.86 in 10.0 miles South 10.4 mph - 0.01 in Rain Light Rain
6:00 PM 41.0°F 41.0°F 100% 29.84 in 10.0 miles South 11.5 mph - N/A   Overcast
6:35 PM 41.0°F 41.0°F 100% 29.84 in 10.0 miles South 12.7 mph - N/A   Overcast
9:55 PM 41.5°F 39.7°F 93% 29.91 in 10.0 miles South 16.1 mph - N/A   Overcast
10:55 PM 42.1°F 39.6°F 91% 29.93 in 10.0 miles South 16.1 mph - N/A   Overcast
11:21 PM 42.8°F 39.2°F 87% 29.93 in 10.0 miles South 15.0 mph - N/A Rain Light Rain
11:55 PM 41.4°F 39.9°F 95% 29.94 in 10.0 miles South 12.7 mph 20.7 mph 0.02 in Rain Light Rain
Moon Phase
Dec. 26 Dec. 28 Jan. 04 Jan. 11 Jan. 18
Sunrise:07:55 AM (PST) Moon Rise:03:25 PM (PST)12/26
Sunset:04:26 PM (PST) Moon Set:06:21 AM (PST)12/26

Copyright © 2014 The Weather Underground, Inc.